Погода в Нижнем-Нойбере

Россия / Чеченская Республика     43°16′12″N   46°16′37″E
темп.,
°C
ветер,
м/с
пор.,
м/с
влажн.,
%
обл.,
%
осадки,
мм/ч
давл.,
гПа
погр.,
м
14 мая, пт
пт1400:00+14юв11904 0.0 101412
03:00+13юв11902 0.0 101411
06:00+16ю00813 0.0 101446
09:00+22ссв22655 0.0 1013355
12:00+27всв33510 0.0 1012602
15:00+30св34380 0.0 1010741
18:00+24в126479 0.0 101060
21:00+18ююв326285 0.0 101125
15 мая, сб
сб1500:00+17ююз11550 0.0 101114
03:00+17ююз22570 0.0 101114
06:00+19ююз11620 0.0 101220
09:00+24с11480 0.0 1013427
12:00+28св22430 0.0 1013821
15:00+29св33380 0.0 10111013
18:00+23св116091 0.0 101128
21:00+19ююз2166100 0.0 101217
16 мая, вс
вс1600:00+18ю117050 0.0 101114
03:00+16ююв117343 0.0 101012
06:00+18з11694 0.0 101041
09:00+24ссв21563 0.0 1010434
12:00+30всв34361 0.0 1007960
15:00+30в68371 0.0 1005728
18:00+24в47550 0.0 1004143
21:00+20ю22622 0.0 100520
17 мая, пн
пн1700:00+19ю21616 0.0 100514
03:00+17ююз11495 0.0 100516
06:00+19ююв11535 0.0 100526
09:00+24св2249100 0.0 1005378
12:00+29всв3336100 0.0 1004724
15:00+28всв45401 0.0 1003535
18:00+23ссв12665 0.0 100452
21:00+18зюз337359 0.0 100745
18 мая, вт
вт1800:00+20зюз5127023 0.0 1008386
03:00+17юз358466 0.0 100993
06:00+19зюз387860 0.0 1010411
09:00+22з796376 0.0 10111062
12:00+24з795496 0.0 10121647
15:00+22зюз6869100 0.3 1012782
18:00+19юз61083100 0.5 1013504
21:00+17юз61288100 2.1 1014388